Location: Unnamed
(51.8936°N, 11.0665°E)
Time: 03:04:21
(UTC+02:00)

UKube-1 - Pass Details

Date: 01 October 2021
Orbit: 611 x 617 km, 98.4° (Epoch: 24 October)

Event Time Altitude Azimuth Distance (km) Brightness Sun altitude
Rises 23:18:58 0° 6° (N) 2,894 ? -36.8°
Reaches altitude 10° 23:21:26 10° 354° (N) 1,985 ? -37.0°
Enters shadow 23:22:11 14° 348° (NNW) 1,737 ? -37.1°
